Current Version              Previous Version:    01  02  03  04  05  06  07  08  09  10  11  12  13  14  15  16  17  18  19  20  21  22  23  24  25  26  27  28  29  30  
   31  32  33  34  35  36  37  38  39  40  41  42  43  44  45  46  47  48  49  50  51  52  53  54  55  56  57  58  59  60  

[Printable]
939
ASUS44 KLUB 010510
RWRTX
WEST TEXAS WEATHER ROUNDUP
NATIONAL WEATHER SERVICE LUBBOCK TX
1200 AM CDT FRI AUG 01 2014

NOTE: "FAIR" INDICATES FEW OR NO CLOUDS BELOW 12,000 FEET WITH NO
SIGNIFICANT WEATHER AND/OR OBSTRUCTIONS TO VISIBILITY.

TXZ004-006>008-010-012-014-016-OKZ002-010600-
TEXAS PANHANDLE/OKLAHOMA PANHANDLE

CITY           SKY/WX    TMP DP  RH WIND       PRES   REMARKS
AMARILLO       MOCLDY    68  56  65 E5        30.22R
BORGER         MOCLDY    71  55  56 SE6       30.19S
CANADIAN       MOCLDY    65  62  92 CALM      30.16R
DALHART        CLOUDY    68  57  68 SE3       30.25R
DUMAS          MOCLDY    65  56  74 E6        30.23R
GUYMON         CLOUDY    68  58  70 CALM      30.18R
HEREFORD       CLOUDY    66  60  81 E3        30.24S
PAMPA          PTCLDY    62  55  78 SE6       30.21S
PERRYTON       MOCLDY    64  58  80 S5        30.17S
$$

TXZ026-029-035-045-048-010600-
SOUTHERN PANHANDLE/SOUTH PLAINS/ROLLING PLAINS

CITY           SKY/WX    TMP DP  RH WIND       PRES   REMARKS
CHILDRESS      PTCLDY    68  64  87 S5        30.15R
SEMINOLE       CLEAR     73  55  51 E7        30.17S
LUBBOCK        MOCLDY    68  52  56 E7        30.19R
PLAINVIEW      CLOUDY    65  55  69 E3        30.20S
SNYDER         CLEAR     72  62  71 E9        30.15R
$$

TXZ052-054-060>062-072-078-127-140-154-169-010600-
PERMIAN BASIN/CONCHO VALLEY/BIG COUNTRY/EDWARDS PLATEAU

CITY           SKY/WX    TMP DP  RH WIND       PRES   REMARKS
ABILENE        PTCLDY    74  63  68 NE5       30.11R
BIG SPRING     CLEAR     76  60  57 NE10      30.15R
BRADY          CLEAR     72  63  73 NE8       30.08S
BROWNWOOD      CLOUDY    75  64  69 NE6       30.09R
JUNCTION       MOCLDY    79  64  60 NE10      30.07R
MIDLAND        CLEAR     76  59  55 E9        30.13R
ODESSA         CLEAR     76  58  53 E10       30.14R
SAN ANGELO     CLEAR     75  62  64 NE10      30.09R
SONORA         CLEAR     77  63  61 N7        30.13R
SWEETWATER     CLEAR     69  64  82 NE5       30.17R
WINK           MOCLDY    79  58  48 SE5       30.10R
$$

TXZ055-058-074-075-080-082-010600-
FAR WEST/SOUTHWEST MOUNTAINS/TRANS PECOS

CITY           SKY/WX    TMP DP  RH WIND       PRES   REMARKS
ALPINE         PTCLDY    70  59  67 N3        30.26S
DRYDEN           N/A     87  63  44 N8        30.03R
EL PASO        CLOUDY    78  58  49 SE8       30.13R
FORT STOCKTON  MOCLDY    78  57  48 NE5       30.13R
GUADALUPE PASS   N/A     67  58  72 MISG        N/A
MARFA          PTCLDY    70  59  68 NE7       30.24S
PECOS          CLOUDY    80  57  45 E6        30.10R
PRESIDIO       FAIR      85  61  44 NE12G20   30.04S
$$

TXZ014-016-019-021>030-083-010600
TEXAS TECH WEST TEXAS MESONET/TEXAS PANHANDLE/NORTHERN SOUTH PLAINS

CITY           SKY/WX    TMP DP  RH WIND       PRES   REMARKS
ABERNATHY 5ENE   N/A     65  52  62 E6        30.21R
AMARILLO 9NNE    N/A     66  58  77 CALM      30.21R
AMARILLO 7SSE    N/A     65  55  68 E5        30.23R
AMHERST 1NE      N/A     66  52  60 E7        30.21F
BOOTLEG 11WNW    N/A     66  53  62 SE6       30.28R
CANADIAN 6E      N/A     64  60  85 SE2       30.15R
CAPROCK CYN SP   N/A     68  60  75 S3        30.18S
CHILDRESS 2NNE   N/A     68  64  86 S3        30.13S
CLARENDON 2WSW   N/A     63  58  82 E3        30.18S
CLAUDE 12SW      N/A     64  57  77 E7        30.22R
DIMMITT 2NE      N/A     65  56  72 E2        30.24R
FLOYDADA 2NNE    N/A     62  53  71 E5        30.19S
FRIONA 2NE       N/A     66  56  69 E6        30.25S
GOODLETT 3W      N/A     69  63  80 S1        30.11S
HART 3N          N/A     63  57  80 E5        30.22S
HEREFORD 2NW     N/A     68  54  61 SE3       30.24S
MCLEAN 1E        N/A     66  56  70 E5        30.17R
MEMPHIS 1NE      N/A     68  63  84 NW1       30.15R
MULESHOE 2SSW    N/A     65  53  65 E3        30.23R
OLTON 6S         N/A     64  52  65 E5        30.21S
PALO DURO SP     N/A     69  55  60 SE1       30.23R
PAMPA 2E         N/A     62  58  84 SE2       30.20S
PLAINVIEW 1S     N/A     67  54  63 E5        30.20S
SILVERTON 7ESE   N/A     65  56  74 SE5       30.20R
TULIA 2ENE       N/A     65  55  70 E3        30.21S
TURKEY 2WSW      N/A     69  62  77 SE3       30.16S
UMBARGER 3NNE    N/A     66  54  65 E1        30.24R
$$

TXZ033>036-039>041-045>048-010600
TEXAS TECH WEST TEXAS MESONET/SOUTH PLAINS

CITY           SKY/WX    TMP DP  RH WIND       PRES   REMARKS
AIKEN 3WSW       N/A     63  55  77 E7        30.21S
ANTON 6SSW       N/A     67  53  59 NE8       30.19F
BROWNFIELD 2S    N/A     71  53  52 E8        30.18S
DENVR CTY 7WNW   N/A     69  51  51 NE6       30.19R
GAIL 2ESE        N/A     73  59  61 E6        30.14R
LAMESA 2SE       N/A     72  58  60 E7        30.16S
LEVELLAND 4S     N/A     66  55  66 NE9       30.19F
LUBBOCK 3WNW     N/A     71  51  49 E7        30.19S
MORTON 1ENE      N/A     67  54  63 E6        30.21S
ODONNELL 1N      N/A     71  55  56 E6        30.17S
PLAINS 3N        N/A     67  57  72 NE7       30.19F
RALLS 1SE        N/A     66  57  72 E5        30.20R
REESE CENTER     N/A     69  51  52 E7        30.19F
SEAGRAVES 1SW    N/A     73  55  52 NE7       30.18R
SEMINOLE 2NNE    N/A     72  54  52 E8        30.16S
SLATON 2NE       N/A     69  56  62 E6        30.19R
SNYDER 3E        N/A     70  62  74 NE7       30.14R
SUNDOWN 8SW      N/A     66  57  73 NE8       30.19F
TAHOKA 3NNE      N/A     68  55  63 E6        30.17S
WOLFFORTH 6SSW   N/A     70  53  53 NE8       30.19S
$$

TXZ031-032-036>038-042>044-010600-
TEXAS TECH WEST TEXAS MESONET/ROLLING PLAINS

CITY           SKY/WX    TMP DP  RH WIND       PRES   REMARKS
ASPERMONT 3NE    N/A     67  61  79 N2        30.12R
FLUVANNA 3WNW    N/A     71  58  62 E8        30.15S
GRAHAM 5SSW      N/A     72  56  57 E8        30.16S
GUTHRIE 10WSW    N/A     68  61  76 E2        30.13S
HASKELL 1NW      N/A     68  60  76 NE6       30.10S
JAYTON 1SSE      N/A     69  60  74 E2        30.13S
KNOX CITY 3NW    N/A     69  60  74 N2        30.11R
LK A HENRY 1NW   N/A     71  60  67 E7        30.14R
NORTHFIELD 1S    N/A     69  62  80 SE3       30.15R
ODELL 4ENE       N/A     67  64  91 NE3       30.10S
PADUCAH 10SW     N/A     68  61  78 E1        30.13S
POST 1NE         N/A     72  56  58 E7        30.16R
RRING SPRGS 3N   N/A     67  61  80 SE2       30.17R
SEYMOUR 3NW      N/A     69  63  81 N3        30.10R
SPUR 1W          N/A     70  59  69 E3        30.14S
WEINERT 2NNE     N/A     68  63  83 NE2       30.11R
WHITE RVR 6NE    N/A     69  59  69 NE5       30.17R
$$

TXZ052-054-060>062-072-078-127-140-154-169-010600-
TEXAS TECH WEST TEXAS MESONET/PERMIAN BASIN/
CONCHO VALLEY/BIG COUNTRY/EDWARDS PLATEAU

CITY           SKY/WX    TMP DP  RH WIND       PRES   REMARKS
COYANOSA 2N      N/A     80  57  45 NE6       30.10R
JUNCTION 1SSW    N/A     78  65  62 NE5       30.07S
MERTZON 3NNE     N/A     74  62  66 NE3       30.11S
SAN ANGELO 7NW   N/A     74  60  61 NE7       30.10R
STRLNG CT 4WSW   N/A     73  62  68 E5        30.12F
ST LAWRNCE 5SW   N/A     74  58  57 E8        30.12R
SWEETWATR 11SW   N/A     67  61  81 E6        30.15R
WALL 1E          N/A     71  60  68 NE5       30.10S
$$

TXZ055-058-074-075-080-082-010600-
TEXAS TECH WEST TEXAS MESONET/FAR WEST/SOUTHWEST MOUNTAINS/TRANS PECOS

CITY           SKY/WX    TMP DP  RH WIND       PRES   REMARKS
PRSMN GAP BBNP   N/A     83  63  50 NE13      30.06S
GUADLPE MTN NP   N/A     65  57  77 N7        30.30S
$$